Location: Castelbiague
(43.0361°N, 0.9246°E)
Time: 15:12:33
(UTC+00:00)

Cosmos 2233 Rocket - Pass Details

Date: 17 June 2021
Orbit: 954 x 990 km, 82.9° (Epoch: 04 August)

Event Time Altitude Azimuth Distance (km) Brightness Sun altitude
Rises 22:05:55 0° 353° (N) 3,642 8.3 -18.8°
Reaches altitude 10° 22:08:26 10° 356° (N) 2,694 7.3 -19.0°
Maximum altitude 22:14:35 74° 81° (E) 1,001 4.0 -19.5°
Enters shadow 22:17:23 34° 159° (SSE) 1,516 4.4 -19.7°
